Simultaneous Nadir Overpasses (SNOs) Predictions

Prediction of SNOs between GOES-16 and TERRA Satellite Orbit:

Table of predicted SNOs for the next 14.0 days since TLE Epoch: 2/8/2020
Index Date Time (GOES-16) GOES-16 Lat,Lon TERRA Lat,Lon Distance(km) Time Diff (sec)
1 02/09/2020 03:23:58 0.03, -75.20 0.45, -73.24 223.31 80
2 02/09/2020 15:42:34 -0.03, -75.21 0.65, -78.39 361.82 80
3 02/11/2020 15:30:25 -0.03, -75.23 0.03, -75.45 25.47 80
4 02/13/2020 15:20:56 -0.03, -75.25 -0.58, -72.50 311.62 80
5 02/14/2020 03:39:42 0.03, -75.24 -0.46, -77.71 279.96 80
6 02/16/2020 03:30:13 0.04, -75.26 0.16, -74.76 57.64 80
7 02/18/2020 03:18:04 0.04, -75.29 0.79, -71.81 395.56 80
8 02/18/2020 15:36:40 -0.05, -75.31 0.31, -76.97 189.16 80
9 02/20/2020 15:27:11 -0.05, -75.35 -0.31, -74.03 149.60 80
10 02/21/2020 03:45:56 0.06, -75.35 -0.78, -79.22 441.23 80




NCC Satellite Simultaneous Nadir Overpasses (SNOs) Prediction Service
